{"data":{"norad_id":47793,"epoch":"2026-09-19T23:10:11.720352Z","epoch_age_seconds":71888,"freshness":"FRESH","line1":"1 47793U 21018G   26262.96541343  .00001809  00000+0  70020-4 0  9995","line2":"2 47793  53.1609  55.0196 0001493  57.8865 302.2281 15.31710880306526","mean_motion":15.3171088,"eccentricity":0.0001493,"inclination_deg":53.1609,"raan_deg":55.0196,"arg_perigee_deg":57.8865,"mean_anomaly_deg":302.2281,"bstar":7.002e-5,"rev_number":30652,"period_min":94.012520169603,"perigee_km":469.68503021056,"apogee_km":471.73009519699,"semimajor_km":6848.8445627038,"source":"CELESTRAK","updated_at":"2026-09-20T09:00:38.605516Z"}}